Location: Jackson Park
(37.2862°N, 79.9123°W)
Time: 14:36:38
(UTC+00:00)

Vanguard 3 - Pass Details

Date: 17 May 2026
Orbit: 507 x 3204 km, 33.3° (Epoch: 6 June)

Event Time Altitude Azimuth Distance (km) Brightness Sun altitude
Rises 02:12:26 0° 279° (W) 6,487 12.7 -18.8°
Reaches altitude 10° 02:19:54 10° 261° (W) 4,888 11.5 -19.8°
Maximum altitude 02:25:56 14° 233° (SW) 3,947 10.7 -20.7°
Drops below altitude 10° 02:30:48 10° 204° (SSW) 3,771 10.3 -21.3°
Enters shadow 02:32:37 - 194° (SSW) 3,887 10.3 -21.6°
Sets 02:35:15 0° 181° (S) 4,225 - -21.9°
